Location: Knowlton
(51.2333°N, 1.2667°E)
Time: 00:07:38
(UTC+00:00)

ZACube-1 - Pass Details

Date: 03 December 2021
Orbit: 582 x 665 km, 97.6° (Epoch: 21 January)

Event Time Altitude Azimuth Distance (km) Brightness Sun altitude
Rises 05:48:53 0° 3° (N) 2,991 ? -16.5°
Reaches altitude 10° 05:51:33 10° 347° (NNW) 2,085 ? -16.1°
Enters shadow 05:52:53 16° 333° (NNW) 1,741 ? -15.9°
